楊-高彗星

325P/Yang-Gao (2015)

English version
Home page
Updated on November 3, 2015

---------------------------------------------------------------------

・ プロフィール

符号 325P/2015 J4
検出日 2015年5月11日
検出光度 19.1等
検出者 H. Sato (Tokyo, Japan)

・ 写真集

・ 軌道要素

Epoch 2015 June 27.0 TT = JDT 2457200.5
T 2015 Aug. 15.13494 TT                                 MPCW
q   1.4310946            (2000.0)            P               Q
n   0.14909220     Peri.  343.56335     -0.47027512     +0.83673820
a   3.5223521      Node   257.62570     -0.77392718     -0.54379082
e   0.5937105      Incl.   16.69199     -0.42412031     +0.06450372
P   6.61
From 1063 observations 2009 June 15-2015 Sept. 6, mean residual 0".5.

・ 星図

・ 光度変化

        m1 = 13.5 + 5 logΔ + 15.0 log r

---------------------------------------------------------------------

軌道要素はM.P.E.C. 2015-S97に掲載されたものです。
星図はステラナビゲータ Ver.8 (アストロアーツ) で作成したものです。
光度グラフはComet for Windowsで作成したものです。

---------------------------------------------------------------------

Copyright(C) Seiichi Yoshida (comet@aerith.net). All rights reserved.